Regional Weather Roundup
Issued by NWS

Home | Current Version | Previous Version | Graphics & Text | Print | Product List | Glossary On
Versions: 1 2 3 4 5 6 7 8 9 10 11 12 13 14 15 16 17 18 19 20 21 22 23 24 25 26 27 28 29 30 31 32 33 34 35 36 37 38 39 40 41 42 43 44 45 46 47 48 49 50
000
ASUS43 KMKX 212211
RWRWI

WISCONSIN REGIONAL WEATHER ROUNDUP
NATIONAL WEATHER SERVICE MILWAUKEE/SULLIVAN WI
400 PM CST SUN DEC 21 2014

NOTE: "FAIR" INDICATES FEW OR NO CLOUDS BELOW 12,000 FEET WITH NO
SIGNIFICANT WEATHER AND/OR OBSTRUCTIONS TO VISIBILITY.

WIZ001-002-006>008-014>016-023>028-212300-
NORTHWEST WISCONSIN

CITY           SKY/WX    TMP DP  RH WIND       PRES   REMARKS
SUPERIOR ARPT  MIX PCPN  32  32  99 E5        29.78F WCI  28
ASHLAND        LGT SNOW  33  32  96 S3        29.82S FOG
HAYWARD        SNOW      33  31  92 S9        29.78F VSB 1/2 WCI  25
SIREN          LGT SNOW  33  32  97 S6        29.76F WCI  28
CUMBERLAND     LGT SNOW  32  32 100 SE8       29.77F VSB 1   WCI  25
RICE LAKE      LGT SNOW  33  32  96 SE8       29.81S VSB 1   WCI  26
CHETEK         LGT SNOW  33  32  99 SE9       29.80S WCI  25
LADYSMITH      LGT SNOW  34  33  96 SE9       29.83F WCI  26
EAU CLAIRE     LGT RAIN  36  34  92 S12       29.80F FOG     WCI  28
MENOMONIE      RAIN      36  36  99 SE9       29.80F WCI  29
NEW RICHMOND   LGT RAIN  34  34 100 S10       29.77S WCI  26
OSCEOLA        LGT RAIN  34  34 100 SE8       29.79S WCI  27
$$

WIZ003>005-009-010-017-018-212300-
NORTH CENTRAL WISCONSIN

CITY           SKY/WX    TMP DP  RH WIND       PRES   REMARKS
MANITOWISH WTR LGT SNOW  31  31 100 S10       29.83F WCI  22
ARBOR VITAE    LGT SNOW  34  32  93 S9        29.84F VSB 1   WCI  27
WOODRUFF       LGT SNOW  34  32  93 S9        29.84F VSB 1   WCI  27
RHINELANDER    LGT SNOW  31  30  96 SE7       29.87F VSB 3/4 WCI  24
EAGLE RIVER    LGT SNOW  32  32  99 S7        29.86F WCI  25
LAND O LAKES   LGT SNOW  32  31  96 S10       29.87S WCI  24
PHILLIPS       LGT SNOW  32  31  96 SE9       29.82F WCI  24
TOMAHAWK       LGT SNOW  32  31  96 S3        29.86F VSB 1
MEDFORD        CLOUDY    32  32 100 S15       29.85F FOG     WCI  22
MERRILL        LGT SNOW  33  33 100 S7        29.88F WCI  26
$$

WIZ029-030-035-036-043>047-212300-
CENTRAL WISCONSIN

CITY           SKY/WX    TMP DP  RH WIND       PRES   REMARKS
WAUSAU         CLOUDY    33  32  96 S15       29.89S FOG     WCI  23
MOSINEE        CLOUDY    34  34 100 SE13      29.91F FOG     WCI  25
MARSHFIELD     FOG       34  32  92 S15       29.88S VSB 1   WCI  24
STEVENS POINT  CLOUDY    32  31  96 S9        29.93F FOG     WCI  24
WAUPACA        CLOUDY    37  32  84 SE9       29.97S FOG     WCI  30
WAUTOMA        CLOUDY    35  33  92 SE8       29.97S FOG     WCI  28
WISC RAPIDS    CLOUDY    35  31  85 SE7       29.93F FOG     WCI  29
CAMP DOUGLAS   CLOUDY    36  36 100 SE8       29.90F WCI  29
$$

WIZ011>013-019>022-031-037>040-048>050-212300-
NORTHEAST WISCONSIN

CITY           SKY/WX    TMP DP  RH WIND       PRES   REMARKS
ANTIGO         LGT SNOW  31  31 100 S12       29.91F WCI  22
SHAWANO        CLOUDY    36  32  86 S7        29.98S FOG     WCI  31
OCONTO         CLOUDY    34  32  92 S8        30.01S WCI  28
STURGEON BAY   CLOUDY    36  32  87 S15G22    30.03F WCI  26
GREEN BAY      CLOUDY    36  32  85 S13       30.01S FOG     WCI  27
MANITOWOC      MIX PCPN  36  34  92 S14       30.04F WCI  27
APPLETON       CLOUDY    34  34 100 S12G17    29.99F FOG     WCI  25
CLINTONVILLE   CLOUDY    34  32  93 S10       29.98S FOG     WCI  26
OSHKOSH        CLOUDY    35  31  85 S10       29.99F FOG     WCI  27
$$

WIZ032>034-041-042-053>061-212300-
SOUTHWEST WISCONSIN

CITY           SKY/WX    TMP DP  RH WIND       PRES   REMARKS
LA CROSSE      CLOUDY    39  35  86 S15G23    29.86F FOG     WCI  31
SPARTA         CLOUDY    37  33  87 S12       29.90S FOG     WCI  29
VIROQUA        CLOUDY    36  36 100 S13G21    29.87S WCI  27
BOSCOBEL       CLOUDY    39  34  82 SE7       29.92F HAZE    WCI  34
PRAIRIE DU CHI CLOUDY    39  33  81 SE12      29.90S WCI  31
PLATTEVILLE    CLOUDY    36  34  92 SE15      29.94F WCI  27
$$

WIZ056-057-062-063-064-067-068-212300-
SOUTH CENTRAL WISCONSIN

CITY           SKY/WX    TMP DP  RH WIND       PRES   REMARKS
REEDSBURG      CLOUDY    36  33  90 S7        29.93S WCI  30
BARABOO/DELLS  CLOUDY    35  32  90 S12G18    29.94S FOG     WCI  27
LONE ROCK      CLOUDY    41  33  73 S9        29.95S HAZE
MINERAL POINT  CLOUDY    36  34  93 SE12      29.93S FOG     WCI  27
MADISON        CLOUDY    36  31  82 S17       29.97F WCI  26
MIDDLETON      CLOUDY    37  33  84 S12G18    29.97S WCI  30
WATERTOWN      CLOUDY    35  32  90 SE8G17    30.00F WCI  28
MONROE         CLOUDY    36  32  87 S18       29.97S WCI  25
JANESVILLE     CLOUDY    37  32  81 S12G17    30.01F WCI  30
$$

WIZ051-052-058>065-066-070>072-212300-
SOUTHEAST WISCONSIN

CITY           SKY/WX    TMP DP  RH WIND       PRES   REMARKS
MILWAUKEE      CLOUDY    36  28  73 S10       30.06F WCI  28
WAUKESHA       CLOUDY    34  28  80 SE12      30.04F WCI  25
MILWAUKEE/TIMM CLOUDY    36  28  75 S12       30.06S WCI  27
RACINE         CLOUDY    36  30  79 S14       30.08F WCI  27
BURLINGTON     CLOUDY    34  29  83 S9        30.04F WCI  27
KENOSHA        CLOUDY    37  29  72 S9        30.06F WCI  30
FOND DU LAC    CLOUDY    35  30  82 S14       29.99F WCI  26
SHEBOYGAN      CLOUDY    35  31  85 S10       30.03F FOG     WCI  27
WEST BEND      CLOUDY    34  30  86 S8        30.03F WCI  27
JUNEAU         CLOUDY    34  31  89 SE14      30.01F WCI  25
$$

LSZ147-162-212300-
LAKE SUPERIOR

STATION/POSITION TIME  TEMP    WIND        PRES    WAVE
                       AIR SEA DIR/SP/G            HT/PER
                 (UTC) (F)     (DEG/KT/KT) (MB)    (FT/S)
DEVILS ISLAND    2200   33     140/  5/  6 1010.7F
PORT WING        2140   33      CALM  /  2 1009.5F
SAXON HARBOR     2100   36     180/  4/  9 1010.2F
$$

LMZ867-665-643>646-212300-
LAKE MICHIGAN

STATION/POSITION TIME  TEMP    WIND        PRES    WAVE
                       AIR SEA DIR/SP/G            HT/PER
                 (UTC) (F)     (DEG/KT/KT) (MB)    (FT/S)
CHAMBERS ISLAND  2100   37     150/  6/ 14 1016.6S
NORTHPORT PIER   2100   37     160/ 10/ 17 1017.3S
SISTER BAY       2113          180/ 18/ 22   N/A
ALGOMA LAKESHORE 2115          220/ 22/ 27   N/A
KEWAUNEE LAKESHO 2100   37     180/ 17/ 19 1016.4S
SHEBOYGAN LAKESH 2200   37 37  180/ 20/ 22 1018.0F
PORT WASHINGTON  2100   37     180/  9/ 14 1018.6S
MILWAUKEE LAKESH 2115   36     190/ 13/ 14   N/A
KENOSHA   LAKESH 2200   36     170/ 15/ 18 1018.3S
$$

TC  - TEMPERATURE IN CELSIUS
VSB - VISIBILITY IN STATUTE MILES
WCI - WIND CHILL INDEX
HX  - HEAT INDEX




USA.gov is the U.S. government's official web portal to all federal, state and local government web resources and services.